[[{"header":{"parameterUnit":"m.s-1","parameterCategory":1,"la1":30.2992,"la2":30.254,"lo1":-89.0895,"lo2":-89.0443,"dy":0.0025,"dx":0.0025,"nx":19,"ny":19,"refTime":"2026-03-18T09:00:00:Z","depth":0,"parameterNumber":2,"parameterNumberName":"U-component_of_WINDS"},"data":[0,0,0,-1.3505,-1.3507,-1.3631,-1.3631,-1.3786,-1.3787,0,0,0,0,0,0,0,0,0,0,0,-1.3467,-1.3468,-1.3504,-1.3507,-1.3631,-1.3631,-1.3786,-1.3787,0,0,0,0,0,0,0,0,0,0,0,-1.3467,-1.3468,-1.3469,-1.3508,-1.3631,-1.3631,-1.3785,-1.3693,0,0,0,0,0,0,0,0,0,0,-1.3574,-1.3539,-1.3468,-1.3469,-1.3509,-1.3631,-1.3631,-1.3689,-1.3699,-1.3729,0,-1.3756,0,-1.3774,-1.3798,-1.3798,0,0,0,-1.3508,-1.353,-1.3564,-1.3469,-1.351,-1.363,-1.3575,-1.3694,-1.3706,-1.3742,-1.3759,-1.3764,-1.3777,-1.3799,-1.3799,-1.3973,-1.3973,0,0,-1.3501,-1.3489,-1.3556,-1.3572,-1.3554,-1.3571,-1.3579,-1.3701,-1.3718,-1.3759,-1.3768,-1.3779,-1.38,-1.3801,-1.3972,-1.3973,0,0,0,-1.3481,-1.3484,-1.3515,-1.3565,-1.3588,-1.3575,-1.3584,-1.3712,-1.3724,-1.377,-1.3781,-1.38,-1.3802,-1.3971,-1.3972,-1.3999,0,0,0,-1.3477,-1.3472,-1.3512,-1.3506,-1.3585,-1.3652,-1.3592,-1.3715,-1.3729,-1.378,-1.38,-1.3804,-1.397,-1.3972,-1.3996,-1.4013,0,0,0,-1.3459,-1.347,-1.3488,-1.3505,-1.3558,-1.365,-1.3669,-1.3719,-1.3737,-1.3798,-1.3804,-1.397,-1.3972,-1.3994,-1.4009,-1.4054,0,0,0,-1.3437,-1.351,-1.3488,-1.3575,-1.3557,-1.3666,-1.3668,-1.375,-1.3806,-1.3801,-1.397,-1.3972,-1.3993,-1.4007,-1.4051,-1.4088,-1.4103,0,0,-1.3522,-1.352,-1.3572,-1.3556,-1.3666,-1.3648,-1.3763,-1.3826,-1.3843,-1.3928,-1.3932,-1.3997,-1.4009,-1.4053,-1.4192,-1.4203,0,0,0,-1.3595,-1.3632,-1.3664,-1.3717,-1.3767,-1.3811,-1.3858,-1.3881,-1.3954,-1.3884,-1.4026,-1.4034,-1.406,-1.4078,-1.4088,-1.4111,-1.3981,-1.398,-1.398,-1.3698,-1.3716,-1.3802,-1.3835,-1.3886,-1.3933,-1.3976,-1.4015,-1.4018,-1.4052,-1.4077,-1.4158,-1.4179,-1.4187,-1.421,-1.4099,-1.4099,-1.4099,-1.4099,-1.3824,-1.3878,-1.3881,-1.3965,-1.3983,-1.4054,-1.4102,-1.4102,-1.4169,-1.4141,-1.4166,-1.4132,-1.4199,-1.422,-1.4101,-1.4101,-1.4101,-1.41,-1.41,-1.3892,-1.3921,-1.3949,-1.4026,-1.4084,-1.4114,-1.4179,-1.4193,-1.4207,-1.4231,-1.4258,-1.4258,-1.4258,-1.4243,-1.4244,-1.4244,-1.4244,-1.4245,-1.4245,-1.3952,-1.3982,-1.4035,-1.4094,-1.4129,-1.4177,-1.4225,-1.4259,-1.4301,-1.4307,-1.4307,-1.4305,-1.4203,-1.4176,-1.4249,-1.4248,-1.4248,-1.4247,-1.4247,-1.407,-1.4045,-1.4127,-1.4163,-1.4232,-1.4287,-1.4305,-1.4375,-1.4406,-1.4437,-1.443,-1.4353,-1.4351,-1.4343,-1.4321,-1.4427,-1.4427,-1.4427,-1.4428,-1.4126,-1.4127,-1.4213,-1.4269,-1.4325,-1.4349,-1.4439,-1.4476,-1.4511,-1.4531,-1.4518,-1.4489,-1.4481,-1.4484,-1.4474,-1.4453,-1.4591,-1.4591,-1.4591,-1.4199,-1.4206,-1.428,-1.4315,-1.437,-1.4416,-1.4501,-1.4563,-1.4598,-1.4598,-1.4546,-1.4539,-1.4494,-1.4479,-1.4476,-1.4459,-1.4421,0,0]},{"header":{"parameterUnit":"m.s-1","parameterCategory":1,"la1":30.2992,"la2":30.254,"lo1":-89.0895,"lo2":-89.0443,"dy":0.0025,"dx":0.0025,"nx":19,"ny":19,"refTime":"2026-03-18T09:00:00:Z","depth":0,"parameterNumber":3,"parameterNumberName":"V-component_of_WINDS"},"data":[0,0,0,-2.9654,-2.9656,-2.973,-2.973,-2.9822,-2.9823,0,0,0,0,0,0,0,0,0,0,0,-2.9632,-2.9633,-2.9654,-2.9656,-2.9729,-2.973,-2.9822,-2.9823,0,0,0,0,0,0,0,0,0,0,0,-2.9632,-2.9633,-2.9633,-2.9656,-2.9729,-2.973,-2.9822,-2.9767,0,0,0,0,0,0,0,0,0,0,-2.9695,-2.9675,-2.9632,-2.9634,-2.9657,-2.9729,-2.973,-2.9764,-2.977,-2.9789,0,-2.9806,0,-2.9816,-2.9829,-2.983,0,0,0,-2.9656,-2.967,-2.969,-2.9634,-2.9657,-2.9729,-2.9696,-2.9768,-2.9774,-2.9797,-2.9807,-2.9811,-2.9818,-2.983,-2.9831,-2.9938,-2.9939,0,0,-2.9651,-2.9645,-2.9686,-2.9695,-2.9684,-2.9694,-2.9698,-2.9772,-2.9782,-2.9808,-2.9813,-2.9819,-2.9831,-2.9831,-2.9938,-2.9938,0,0,0,-2.964,-2.9642,-2.9661,-2.9691,-2.9704,-2.9696,-2.9701,-2.9779,-2.9786,-2.9814,-2.982,-2.9831,-2.9832,-2.9937,-2.9938,-2.9956,0,0,0,-2.9637,-2.9636,-2.9659,-2.9656,-2.9703,-2.9743,-2.9707,-2.9781,-2.9789,-2.982,-2.9831,-2.9833,-2.9937,-2.9938,-2.9954,-2.9965,0,0,0,-2.9627,-2.9635,-2.9645,-2.9655,-2.9687,-2.9742,-2.9753,-2.9783,-2.9793,-2.983,-2.9834,-2.9936,-2.9938,-2.9953,-2.9962,-2.999,0,0,0,-2.9615,-2.9661,-2.9645,-2.97,-2.9686,-2.9753,-2.9752,-2.9803,-2.9837,-2.9832,-2.9937,-2.9938,-2.9952,-2.9961,-2.9988,-3.001,-3.0019,0,0,-2.9669,-2.9667,-2.97,-2.9688,-2.9756,-2.9743,-2.9813,-2.985,-2.986,-2.9911,-2.9914,-2.9955,-2.9962,-2.9989,-3.0077,-3.0084,0,0,0,-2.9715,-2.9738,-2.9757,-2.9789,-2.9819,-2.9845,-2.9872,-2.9885,-2.993,-2.9885,-2.9974,-2.9978,-2.9994,-3.0005,-3.0011,-3.0024,-2.9943,-2.9943,-2.9943,-2.9782,-2.9792,-2.9845,-2.9863,-2.9895,-2.9922,-2.9947,-2.997,-2.9971,-2.9992,-3.0006,-3.0058,-3.0071,-3.0075,-3.0089,-3.0021,-3.0021,-3.0021,-3.0021,-2.9861,-2.9894,-2.9894,-2.9946,-2.9955,-2.9999,-3.0027,-3.0026,-3.0066,-3.0049,-3.0063,-3.004,-3.0083,-3.0095,-3.0023,-3.0022,-3.0022,-3.0022,-3.0022,-2.9904,-2.9921,-2.9938,-2.9984,-3.0019,-3.0037,-3.0075,-3.0084,-3.0091,-3.0106,-3.0121,-3.012,-3.0119,-3.0113,-3.0113,-3.0113,-3.0114,-3.0114,-3.0114,-2.9941,-2.9959,-2.9991,-3.0026,-3.0047,-3.0076,-3.0104,-3.0125,-3.015,-3.0152,-3.0152,-3.0149,-3.0087,-3.0069,-3.0117,-3.0116,-3.0116,-3.0115,-3.0115,-3.0013,-2.9998,-3.0048,-3.0069,-3.011,-3.0143,-3.0154,-3.0195,-3.0213,-3.0232,-3.0227,-3.018,-3.0178,-3.0173,-3.0158,-3.0226,-3.0226,-3.0226,-3.0226,-3.0048,-3.0048,-3.0099,-3.0132,-3.0166,-3.018,-3.0234,-3.0256,-3.0277,-3.0288,-3.028,-3.0263,-3.0257,-3.0258,-3.0252,-3.0238,-3.0324,-3.0325,-3.0325,-3.0091,-3.0095,-3.014,-3.016,-3.0193,-3.0221,-3.0271,-3.0308,-3.0329,-3.0329,-3.0297,-3.0293,-3.0264,-3.0255,-3.0252,-3.0241,-3.0216,0,0]}]]